Weather History for San Luis Obispo, CA

Change the Weather History Date:

Sunday, November 24, 2013

  Actual Average Record
Temperature  
Mean Temperature 54 °F -  
Max Temperature 70 °F 68 °F 85 °F (1950)
Min Temperature 39 °F 45 °F 33 °F (2010)
Degree Days  
Heating Degree Days 10    
Growing Degree Days 4 (Base 50)    
Moisture  
Dew Point 41 °F    
Average Humidity 68    
Maximum Humidity 89    
Minimum Humidity 35    
Precipitation  
Precipitation 0.00 in - - ()
Sea Level Pressure  
Sea Level Pressure 30.16 in    
Wind  
Wind Speed 2 mph (NNW)    
Max Wind Speed 16 mph    
Max Gust Speed -    
Visibility 10 miles    
Events      
Averages and records for this station are not official NWS values.
T = Trace of Precipitation, MM = Missing Value Source: NWS Daily Summary

Daily Weather History Graph

Daily Weather History Graph

Search for Another Location

Airport:

Trip Planner

Search our weather history database for the weather conditions in past years. The results will help you decide how hot, cold, wet, or windy it might be!

Date:

Astronomy

Nov. 24, 2013 Rise Set
Actual Time 6:46 AM PST 4:51 PM PST
Civil Twilight 6:19 AM PST 5:19 PM PST
Nautical Twilight 5:47 AM PST 5:50 PM PST
Astronomical Twilight 5:17 AM PST 6:20 PM PST
Moon 11:15 PM PST (11/24) 11:43 AM PST (11/24)
Length of Visible Light 11h 00m
Length of Day
10h 05m
Waning Gibbous, 59% of the Moon is Illuminated
Nov 24
Waning Gibbous
Nov 25
Last Quarter
Dec 2
New
Dec 9
First Quarter
Dec 17
Full

Hourly Weather History & Observations

Time (PST) Temp. Dew Point Humidity Pressure Visibility Wind Dir Wind Speed Gust Speed Precip Events Conditions
12:56 AM 45.0 °F 41.0 °F 86% 30.11 in 10.0 mi Calm Calm - N/A   Clear
1:56 AM 44.1 °F 39.9 °F 85% 30.12 in 10.0 mi Calm Calm - N/A   Clear
2:56 AM 43.0 °F 39.0 °F 86% 30.11 in 10.0 mi Calm Calm - N/A   Clear
3:56 AM 41.0 °F 37.9 °F 89% 30.11 in 10.0 mi Calm Calm - N/A   Clear
4:56 AM 41.0 °F 37.9 °F 89% 30.12 in 10.0 mi Calm Calm - N/A   Clear
5:56 AM 39.9 °F 37.0 °F 89% 30.13 in 10.0 mi Calm Calm - N/A   Clear
6:56 AM 39.9 °F 37.0 °F 89% 30.14 in 10.0 mi Calm Calm - N/A   Clear
7:56 AM 45.0 °F 41.0 °F 86% 30.17 in 10.0 mi Calm Calm - N/A   Clear
8:56 AM 51.1 °F 44.1 °F 77% 30.18 in 10.0 mi Calm Calm - N/A   Clear
9:56 AM 59.0 °F 45.0 °F 60% 30.18 in 10.0 mi Calm Calm - N/A   Clear
10:56 AM 64.9 °F 44.1 °F 47% 30.17 in 10.0 mi Calm Calm - N/A   Clear
11:56 AM 69.1 °F 39.9 °F 35% 30.15 in 10.0 mi Variable 3.5 mph - N/A   Clear
12:56 PM 70.0 °F 41.0 °F 35% 30.14 in 10.0 mi NW 11.5 mph - N/A   Scattered Clouds
1:56 PM 69.1 °F 42.1 °F 38% 30.13 in 10.0 mi NW 15.0 mph - N/A   Scattered Clouds
2:56 PM 68.0 °F 42.1 °F 39% 30.13 in 10.0 mi NW 12.7 mph - N/A   Partly Cloudy
3:56 PM 63.0 °F 44.1 °F 50% 30.14 in 10.0 mi NW 16.1 mph - N/A   Partly Cloudy
4:56 PM 59.0 °F 44.1 °F 58% 30.15 in 10.0 mi NW 11.5 mph - N/A   Clear
5:56 PM 57.9 °F 45.0 °F 62% 30.17 in 10.0 mi NNW 8.1 mph - N/A   Clear
6:56 PM 57.0 °F 45.0 °F 64% 30.19 in 10.0 mi North 6.9 mph - N/A   Clear
7:56 PM 53.1 °F 44.1 °F 71% 30.20 in 10.0 mi SE 3.5 mph - N/A   Clear
8:56 PM 51.1 °F 43.0 °F 74% 30.21 in 10.0 mi East 4.6 mph - N/A   Clear
9:56 PM 48.9 °F 41.0 °F 74% 30.21 in 10.0 mi Calm Calm - N/A   Clear
10:56 PM 46.9 °F 39.9 °F 77% 30.22 in 10.0 mi Calm Calm - N/A   Clear
11:56 PM 45.0 °F 39.0 °F 80% 30.23 in 10.0 mi Calm Calm - N/A   Clear